BREEZE-M DEB, 38588

Orbit data source: Space-Track

BREEZE-M DEB, 38588 is space debris in HEO originally from a launch on Fri, 14 Mar 2008 UTC launched from the Tyuratam Missile And Space Complex (TTMTR). Debris objects in space refer to the collection of defunct objects orbiting the Earth. Examples of debris include non-operational satellites, rocket bodies, and fragments generated from explosions, collisions, or faulty payload assembly.

Loading next visibility...
Identifier
38588, 2008-011AK
Orbit
HEO
Country
Flag of CISCIS
Related business
Manufacturer
Unknown
Mission
Spacecraft
Bus & Motor
Unknown
Mass
Unknown
Launch date (UTC)
2008-03-14 (18 years ago)
Launch vehicle
Unknown
Launch site
Tyuratam Missile And Space Complex (TTMTR)
Object type
Payload
Rocket body
Debris
Shape & HBR
Unknown shape, 0.6 m
Radar Cross Section
Medium (>0.1 m² and <1 m²)

Expand to show TLE details & history
Last TLE update: 5 days ago

TLE from 5 days ago
0 BREEZE-M DEB
1 38588U 08011AK  26169.17809998  .00007956  00000-0  35061-1 0  9990
2 38588  49.9236  29.7356 6296327  94.5012 334.8684  3.40688257169077
Epoch: 2026-06-18T04:16Z
TLE epoch observation values (Epoch: 2026-06-18T04:16:27.838Z)
Latitude
0.00009°
Longitude
59.22827°
Altitude
5,438.237 km
Speed
6.79 km/s
True Right ascension
01h 59m 04s
True Declination
0° 00' 00"
Sunlit
Object was in daylight at epoch
Visualization orbit readout
Latitude
Unknown
Longitude
Unknown
Altitude
Unknown
Speed
Unknown
Apparent Right ascension
Unknown
Apparent Declination
Unknown
Sunlit
N/A
Visualization observer readout
Local Sidereal Time
11:00:48
Azimuth
Unknown
Elevation
Unknown
Doppler factor
Unknown
Orbital elements
Apogee altitude
24,026.139 km
Perigee altitude
531.855 km
Semi-major axis
18,657.134 km
Eccentricity
0.62963
Inclination
49.9236°
RAAN
29.7356°
Arg. of periapsis
94.5012°
True anomaly
265.57427°
Mean anomaly
334.8684°
Eccentric anomaly
305.49833°
Mean motion
0.85168 °/min
Orbital period
422.69 mins
BSTAR
0.035061
Loading maneuver chart data...
Computing Atmospheric mass density...
Loading historical data...
Loading historical data...
Loading historical data...
Loading historical data...
Loading historical data...
Loading historical data...
Loading historical data...

Documentation

Showing up to 5 results
|